GW7285 Weather Reports


Display with metric or nautical units.
time (UTC)temp
F
wind
direction
speed
MPH
gust
MPH
rain 1hr
in
rain 24hr
in
rain mn
in
humidity
%
barometer
mb
20260505083034 47 47 2.0 4.0 0.00 0.45 0.45 99 1008.0
20260505082530 47 38 3.0 7.0 0.00 0.45 0.45 99 1007.9
20260505082027 47 181 0.0 2.0 0.00 0.45 0.45 99 1008.0
20260505081523 48 38 1.0 4.0 0.00 0.45 0.45 99 1007.9
20260505081021 48 55 2.0 4.0 0.12 0.45 0.45 99 1007.4
20260505080517 48 53 1.0 13.0 0.28 0.45 0.45 98 1006.7
20260505080014 48 121 1.0 9.0 0.28 0.43 0.43 96 1006.5
20260505075509 49 129 4.0 10.0 0.26 0.40 0.40 92 1008.8
20260505075006 49 71 2.0 4.0 0.24 0.37 0.37 92 1009.5
20260505074504 49 46 2.0 2.0 0.31 0.35 0.35 93 1009.8
20260505074001 50 146 3.0 4.0 0.28 0.32 0.32 91 1009.7
20260505073458 50 99 0.0 0.0 0.31 0.29 0.29 93 1010.4
20260505072956 50 81 0.0 1.0 0.31 0.27 0.27 93 1010.7
20260505072451 51 79 0.0 1.0 0.24 0.24 0.24 91 1010.5
20260505071948 51 133 1.0 3.0 0.12 0.21 0.21 89 1010.4
20260505071444 52 127 0.0 3.0 0.19 0.20 0.20 88 1010.9
20260505070942 52 0 3.0 4.0 0.12 0.19 0.19 88 1010.6
20260505070439 53 105 2.0 3.0 0.05 0.17 0.17 89 1009.6
20260505065934 53 125 0.0 1.0 0.07 0.16 0.16 91 1008.8
20260505065431 53 120 0.0 1.0 0.07 0.16 0.16 91 1009.2
20260505064927 54 103 0.0 0.0 0.00 0.15 0.15 90 1008.9
20260505064425 55 55 1.0 1.0 0.05 0.15 0.15 88 1008.8
20260505063923 55 108 0.0 1.0 0.12 0.15 0.15 88 1008.6
20260505063419 56 119 0.0 0.0 0.07 0.14 0.14 88 1008.3
20260505062916 57 116 0.0 2.0 0.00 0.13 0.13 85 1008.2
20260505062413 57 154 2.0 4.0 0.00 0.13 0.13 86 1007.9
20260505061909 56 124 0.0 0.0 0.07 0.13 0.13 94 1008.0
20260505061408 56 130 0.0 1.0 0.07 0.13 0.13 93 1007.7
20260505060905 57 135 0.0 0.0 0.12 0.12 0.12 91 1007.9
20260505060402 57 122 0.0 0.0 0.24 0.12 0.12 90 1007.6
20260505055858 58 117 0.0 0.0 0.19 0.09 0.09 86 1007.4
20260505055354 58 126 0.0 1.0 0.28 0.08 0.08 83 1007.1
20260505054851 59 78 0.0 1.0 0.35 0.06 0.06 83 1006.6
20260505054348 61 120 0.0 1.0 0.12 0.02 0.02 77 1006.4
20260505053847 64 81 0.0 8.0 0.00 0.00 0.00 65 1006.1
20260505053344 64 143 1.0 3.0 0.00 0.00 0.00 64 1006.1
20260505052840 65 81 0.0 7.0 0.00 0.00 0.00 62 1006.1
20260505052337 65 121 0.0 4.0 0.00 0.00 0.00 59 1006.3
20260505051834 66 66 1.0 2.0 0.00 0.00 0.00 56 1006.2
20260505051331 67 129 2.0 3.0 0.00 0.00 0.00 51 1006.2
20260505050829 69 196 2.0 7.0 0.00 0.00 0.00 48 1006.0
20260505050328 69 115 2.0 7.0 0.00 0.00 0.00 47 1005.5
20260505041758 69 145 0.0 6.0 0.00 0.00 0.00 75 1004.7
20260505041255 69 141 1.0 3.0 0.00 0.00 0.00 75 1004.8
20260505040752 70 138 3.0 4.0 0.00 0.00 0.00 74 1004.8
20260505040250 70 129 0.0 4.0 0.00 0.00 0.00 75 1004.9
20260505035746 70 135 0.0 3.0 0.00 0.00 0.00 75 1004.9
20260505035242 70 126 0.0 1.0 0.00 0.00 0.00 74 1004.9
20260505034739 70 135 0.0 3.0 0.00 0.00 0.00 74 1004.8
20260505034236 70 134 0.0 2.0 0.00 0.00 0.00 74 1004.7
20260505033733 70 115 0.0 1.0 0.00 0.00 0.00 74 1004.8
20260505033230 70 138 1.0 3.0 0.00 0.00 0.00 74 1004.8
20260505032728 70 142 1.0 3.0 0.00 0.00 0.00 73 1004.9
20260505032224 70 131 0.0 1.0 0.00 0.00 0.00 72 1004.9
20260505031721 70 149 2.0 4.0 0.00 0.00 0.00 71 1004.8
20260505031217 71 116 0.0 4.0 0.00 0.00 0.00 71 1004.6
20260505030714 71 132 0.0 2.0 0.00 0.00 0.00 70 1004.6
20260505030210 71 116 0.0 2.0 0.00 0.00 0.00 69 1004.7
20260505025707 71 128 1.0 1.0 0.00 0.00 0.00 69 1004.7
20260505025205 71 124 0.0 2.0 0.00 0.00 0.00 68 1004.6
20260505024703 71 99 0.0 0.0 0.00 0.00 0.00 68 1004.6
20260505024200 72 118 0.0 1.0 0.00 0.00 0.00 67 1004.3
20260505023657 71 118 0.0 0.0 0.00 0.00 0.00 67 1004.3
20260505023154 71 110 0.0 2.0 0.00 0.00 0.00 67 1004.2
20260505022652 70 131 0.0 1.0 0.00 0.00 0.00 68 1004.2
20260505022149 69 124 0.0 0.0 0.00 0.00 0.00 70 1004.0
20260505021645 69 124 0.0 0.0 0.00 0.00 0.00 70 1003.9
20260505021142 69 125 0.0 0.0 0.00 0.00 0.00 69 1004.0
20260505020637 68 122 0.0 0.0 0.00 0.00 0.00 70 1004.0
20260505020134 69 122 0.0 0.0 0.00 0.00 0.00 69 1003.8
20260505015631 69 122 0.0 0.0 0.00 0.00 0.00 69 1004.0
20260505015128 69 122 0.0 0.0 0.00 0.00 0.00 68 1003.9
20260505014624 70 127 0.0 0.0 0.00 0.00 0.00 67 1003.9
20260505014121 70 127 0.0 0.0 0.00 0.00 0.00 65 1003.7
20260505013619 71 123 0.0 0.0 0.00 0.00 0.00 65 1003.7
20260505013116 71 122 0.0 0.0 0.00 0.00 0.00 63 1003.6
20260505012614 71 126 0.0 0.0 0.00 0.00 0.00 63 1003.5
20260505012111 71 127 0.0 0.0 0.00 0.00 0.00 63 1003.4
20260505011606 72 126 0.0 0.0 0.00 0.00 0.00 63 1003.3
20260505011104 72 126 0.0 0.0 0.00 0.00 0.00 61 1003.1
20260505010604 73 126 0.0 0.0 0.00 0.00 0.00 60 1003.2
20260505005558 74 126 0.0 0.0 0.00 0.00 0.00 58 1003.1
20260505005055 75 126 0.0 0.0 0.00 0.00 0.00 57 1003.2
20260505004552 75 126 0.0 0.0 0.00 0.00 0.00 56 1002.9
20260505004049 76 122 0.0 0.0 0.00 0.00 0.00 55 1002.9
20260505003546 77 122 0.0 0.0 0.00 0.00 0.00 53 1002.7
20260505003043 78 124 0.0 0.0 0.00 0.00 0.00 52 1002.7
20260505002543 79 120 0.0 0.0 0.00 0.00 0.00 50 1002.9
20260505002043 79 125 0.0 0.0 0.00 0.00 0.00 49 1002.9
20260505001540 79 128 0.0 1.0 0.00 0.00 0.00 49 1002.6
20260505001037 79 130 0.0 1.0 0.00 0.00 0.00 50 1002.7
20260505000534 79 121 0.0 0.0 0.00 0.00 0.00 49 1002.7
20260505000032 79 127 0.0 0.0 0.00 0.00 0.00 50 1002.8
20260504235528 79 124 0.0 0.0 0.00 0.00 0.00 49 1002.8
20260504235025 79 117 0.0 0.0 0.00 0.00 0.00 49 1002.9
20260504234522 79 123 0.0 1.0 0.00 0.00 0.00 49 1002.5
20260504234019 80 152 0.0 0.0 0.00 0.00 0.00 48 1002.9
20260504233514 80 118 0.0 3.0 0.00 0.00 0.00 48 1002.7
20260504233012 80 124 0.0 0.0 0.00 0.00 0.00 49 1002.8
20260504232509 80 160 0.0 3.0 0.00 0.00 0.00 48 1003.0
20260504232006 80 116 0.0 0.0 0.00 0.00 0.00 47 1003.0
20260504231503 81 168 0.0 0.0 0.00 0.00 0.00 47 1003.1
20260504230959 82 213 1.0 3.0 0.00 0.00 0.00 45 1002.9
20260504230455 83 209 0.0 4.0 0.00 0.00 0.00 44 1002.9
20260504225954 82 124 2.0 2.0 0.00 0.00 0.00 45 1002.7
20260504225451 82 98 0.0 4.0 0.00 0.00 0.00 46 1003.0
20260504224948 82 206 4.0 7.0 0.00 0.00 0.00 43 1003.1
20260504224444 82 150 2.0 4.0 0.00 0.00 0.00 45 1002.9
20260504223941 82 208 4.0 4.0 0.00 0.00 0.00 44 1002.9
20260504223437 82 99 0.0 6.0 0.00 0.00 0.00 45 1002.9
20260504222933 82 51 2.0 3.0 0.00 0.00 0.00 44 1003.0
20260504222431 83 163 0.0 4.0 0.00 0.00 0.00 43 1002.8
20260504221929 83 206 0.0 6.0 0.00 0.00 0.00 44 1002.9
20260504221425 83 198 1.0 6.0 0.00 0.00 0.00 44 1003.0
20260504220922 82 324 6.0 9.0 0.00 0.00 0.00 42 1003.1
20260504220419 82 156 3.0 6.0 0.00 0.00 0.00 46 1003.1
20260504215916 82 158 2.0 3.0 0.00 0.00 0.00 45 1003.1
20260504215413 81 118 0.0 2.0 0.00 0.00 0.00 49 1003.1
20260504214909 81 195 2.0 4.0 0.00 0.00 0.00 45 1003.2
20260504214406 81 111 1.0 4.0 0.00 0.00 0.00 48 1003.4
20260504213902 81 99 5.0 13.0 0.00 0.00 0.00 45 1003.5
20260504213358 81 129 0.0 1.0 0.00 0.00 0.00 45 1003.5
20260504212856 81 120 0.0 2.0 0.00 0.00 0.00 45 1003.5
20260504212351 81 115 0.0 7.0 0.00 0.00 0.00 44 1003.5
20260504211850 81 174 2.0 7.0 0.00 0.00 0.00 45 1003.4
20260504211345 81 120 1.0 6.0 0.00 0.00 0.00 44 1003.3
20260504210843 80 162 2.0 3.0 0.00 0.00 0.00 49 1003.5
20260504210340 80 242 6.0 7.0 0.00 0.00 0.00 46 1003.5
20260504205837 80 208 2.0 6.0 0.00 0.00 0.00 46 1003.6
20260504205335 80 78 1.0 4.0 0.00 0.00 0.00 47 1003.6
20260504204833 80 159 6.0 8.0 0.00 0.00 0.00 46 1003.7
20260504204331 80 130 3.0 8.0 0.00 0.00 0.00 47 1003.7
20260504203830 81 286 0.0 6.0 0.00 0.00 0.00 48 1003.8
20260504203327 82 202 4.0 9.0 0.00 0.00 0.00 48 1003.8
20260504202822 82 63 2.0 4.0 0.00 0.00 0.00 44 1003.8
20260504202320 81 111 0.0 7.0 0.00 0.00 0.00 48 1003.8
20260504201816 82 190 2.0 6.0 0.00 0.00 0.00 45 1004.0
20260504201314 83 252 2.0 7.0 0.00 0.00 0.00 46 1003.9
20260504200811 82 116 2.0 7.0 0.00 0.00 0.00 47 1003.7
20260504200307 82 210 3.0 6.0 0.00 0.00 0.00 45 1003.8
20260504195803 83 190 3.0 8.0 0.00 0.00 0.00 43 1003.9
20260504195259 82 154 3.0 4.0 0.00 0.00 0.00 46 1003.8
20260504194756 82 195 5.0 8.0 0.00 0.00 0.00 45 1003.9
20260504194253 82 169 3.0 6.0 0.00 0.00 0.00 49 1003.8
20260504193749 82 219 2.0 7.0 0.00 0.00 0.00 47 1003.8
20260504193246 82 221 2.0 9.0 0.00 0.00 0.00 49 1003.9
20260504192745 82 171 2.0 6.0 0.00 0.00 0.00 49 1003.8
20260504192243 81 134 2.0 6.0 0.00 0.00 0.00 53 1003.8
20260504191741 82 157 4.0 10.0 0.00 0.00 0.00 49 1003.9
20260504191238 82 207 5.0 8.0 0.00 0.00 0.00 48 1003.9
20260504190733 82 69 3.0 4.0 0.00 0.00 0.00 50 1003.9
20260504190230 82 139 2.0 7.0 0.00 0.00 0.00 55 1003.9
20260504185726 81 117 1.0 9.0 0.00 0.00 0.00 49 1004.4
20260504185223 81 245 3.0 11.0 0.00 0.00 0.00 47 1004.2
20260504184719 81 304 4.0 7.0 0.00 0.00 0.00 47 1004.2
20260504184215 80 212 2.0 7.0 0.00 0.00 0.00 45 1004.1
20260504183711 79 117 0.0 6.0 0.00 0.00 0.00 50 1004.2
20260504183208 79 262 6.0 8.0 0.00 0.00 0.00 48 1004.2
20260504182706 79 219 1.0 7.0 0.00 0.00 0.00 46 1004.4
20260504182203 79 95 1.0 8.0 0.00 0.00 0.00 48 1004.4
20260504181701 80 300 4.0 6.0 0.00 0.00 0.00 45 1004.5
20260504181158 79 176 3.0 8.0 0.00 0.00 0.00 51 1004.4
20260504180657 79 90 4.0 6.0 0.00 0.00 0.00 47 1004.3
20260504180155 78 327 4.0 7.0 0.00 0.00 0.00 47 1004.5
20260504175652 79 183 2.0 4.0 0.00 0.00 0.00 47 1004.6
20260504175149 79 209 0.0 4.0 0.00 0.00 0.00 51 1004.8
20260504174647 78 153 1.0 6.0 0.00 0.00 0.00 48 1004.8
20260504174143 78 105 2.0 4.0 0.00 0.00 0.00 51 1004.7
20260504173641 78 163 2.0 7.0 0.00 0.00 0.00 48 1004.7
20260504173138 77 275 3.0 7.0 0.00 0.00 0.00 49 1004.7
20260504172634 77 290 2.0 7.0 0.00 0.00 0.00 50 1004.7
20260504172131 76 199 4.0 8.0 0.00 0.00 0.00 48 1004.9
20260504171627 77 169 2.0 9.0 0.00 0.00 0.00 52 1005.0
20260504171125 78 126 3.0 6.0 0.00 0.00 0.00 50 1004.9
20260504170621 77 238 3.0 4.0 0.00 0.00 0.00 48 1005.2
20260504170119 77 339 5.0 9.0 0.00 0.00 0.00 46 1004.9
20260504151004 73 201 4.0 10.0 0.00 0.00 0.00 51 1005.0
20260504150501 72 165 3.0 10.0 0.00 0.00 0.00 52 1005.2
20260504140927 68 129 0.0 4.0 0.00 0.00 0.00 60 1005.5
20260504140424 66 122 1.0 4.0 0.00 0.00 0.00 59 1005.2
20260504130349 67 175 2.0 3.0 0.00 0.00 0.00 56 1005.0
20260504120312 62 111 1.0 4.0 0.00 0.00 0.00 62 1004.9
20260504110236 63 172 3.0 6.0 0.00 0.00 0.00 57 1005.6
20260504100159 65 119 1.0 2.0 0.00 0.00 0.00 54 1005.6
20260504090122 65 187 3.0 6.0 0.00 0.00 0.00 54 1005.8